Location: Unspecified
(0.0000°N, 0.0000°E)
Time: 22:11:22
(UTC+00:00)

Transit 2A Rocket - Visible Passes

Search period start: 22 March 2017 00:00
Search period end: 01 April 2017 00:00
Orbit: 595 x 909 km, 66.7° (Epoch: 21 March)

Date Brightness Start Highest point End Pass type
(mag) Time Alt. Az. Time Alt. Az. Time Alt. Az.
22 Mar 5.1 05:03:22 10° NNW 05:08:18 78° ENE 05:13:45 10° SSE visible
23 Mar 6.5 04:21:33 10° N 04:26:03 35° ENE 04:30:57 10° SE visible
24 Mar 7.6 03:40:40 10° NNE 03:43:49 17° ENE 03:47:08 10° ESE visible
24 Mar 5.8 05:21:42 10° NW 05:26:04 30° WSW 05:30:49 10° S visible
25 Mar 4.9 04:41:22 31° NW 04:43:41 63° WSW 04:49:08 10° S visible
26 Mar 5.6 04:02:10 54° ESE 04:02:10 54° ESE 04:06:47 10° SSE visible
27 Mar 7.6 03:22:43 14° ESE 03:22:43 14° ESE 03:23:43 10° SE visible
27 Mar 6.6 05:02:45 17° SW 05:02:45 17° SW 05:05:15 10° SSW visible
28 Mar 7.0 04:23:03 16° S 04:23:03 16° S 04:24:13 10° S visible
